�T-2-1-14�@�����E�K�\�����X�����i�̓���,,,,

,�����i�S���j�i���ڐ���j,�����i�k�C���ǁj�i���ڐ���j,�����i���k�ǁj�i���ڐ���j,���M�����[�K�\�����i�E�ڐ���j
�i�N/��/���j,�i�P��:�~/18���b�g���j,�i�P��:�~/18���b�g���j,�i�P��:�~/18���b�g���j,�i�P��:�~/�P���b�g���j
1/4/2007,"1,402 ","1,396 ","1,339 ",133.9 
1/9/2007,"1,400 ","1,395 ","1,337 ",133.7 
1/15/2007,"1,397 ","1,395 ","1,332 ",133.3 
1/22/2007,"1,391 ","1,393 ","1,329 ",132.7 
1/29/2007,"1,385 ","1,390 ","1,320 ",132.2 
2/5/2007,"1,360 ","1,374 ","1,299 ",130.4 
2/13/2007,"1,349 ","1,353 ","1,282 ",129.6 
2/19/2007,"1,345 ","1,349 ","1,277 ",129.3 
2/26/2007,"1,341 ","1,347 ","1,274 ",129.0 
3/5/2007,"1,338 ","1,336 ","1,270 ",128.8 
3/12/2007,"1,337 ","1,335 ","1,266 ",129.0 
3/19/2007,"1,336 ","1,334 ","1,266 ",129.2 
3/26/2007,"1,336 ","1,334 ","1,265 ",129.1 
4/2/2007,"1,333 ","1,313 ","1,253 ",129.1 
4/9/2007,"1,336 ","1,311 ","1,254 ",129.7 
4/16/2007,"1,340 ","1,314 ","1,257 ",130.3 
4/23/2007,"1,343 ","1,317 ","1,265 ",130.6 
5/1/2007,"1,383 ","1,367 ","1,303 ",134.0 
5/7/2007,"1,399 ","1,385 ","1,327 ",135.2 
5/14/2007,"1,410 ","1,401 ","1,340 ",136.4 
5/21/2007,"1,413 ","1,400 ","1,343 ",136.7 
5/28/2007,"1,415 ","1,403 ","1,343 ",136.8 
6/4/2007,"1,430 ","1,418 ","1,357 ",138.2 
6/11/2007,"1,435 ","1,422 ","1,361 ",138.9 
6/18/2007,"1,437 ","1,427 ","1,364 ",138.9 
6/25/2007,"1,437 ","1,426 ","1,364 ",138.9 
7/2/2007,"1,444 ","1,435 ","1,371 ",139.6 
7/9/2007,"1,453 ","1,445 ","1,377 ",140.6 
7/17/2007,"1,457 ","1,450 ","1,381 ",141.1 
7/23/2007,"1,459 ","1,451 ","1,382 ",141.3 
7/30/2007,"1,460 ","1,453 ","1,383 ",141.3 
8/6/2007,"1,495 ","1,475 ","1,414 ",145.1 
8/13/2007,"1,499 ","1,481 ","1,417 ",145.4 
8/20/2007,"1,500 ","1,480 ","1,418 ",145.4 
8/27/2007,"1,500 ","1,480 ","1,419 ",145.3 
9/3/2007,"1,495 ","1,474 ","1,412 ",144.6 
9/10/2007,"1,490 ","1,468 ","1,406 ",144.0 
9/18/2007,"1,489 ","1,470 ","1,404 ",143.6 
9/25/2007,"1,489 ","1,467 ","1,402 ",143.4 
10/1/2007,"1,496 ","1,472 ","1,409 ",144.0 
10/9/2007,"1,505 ","1,476 ","1,420 ",144.7 
10/15/2007,"1,509 ","1,478 ","1,425 ",144.9 
10/22/2007,"1,513 ","1,482 ","1,433 ",144.9 
10/29/2007,"1,515 ","1,490 ","1,440 ",145.0 
11/5/2007,"1,594 ","1,553 ","1,525 ",149.9 
11/12/2007,"1,605 ","1,569 ","1,540 ",150.1 
11/19/2007,"1,616 ","1,578 ","1,559 ",150.2 
11/26/2007,"1,628 ","1,599 ","1,577 ",150.1 
12/3/2007,"1,735 ","1,764 ","1,691 ",154.9 
12/10/2007,"1,755 ","1,775 ","1,707 ",155.5 
12/17/2007,"1,757 ","1,779 ","1,707 ",155.3 
12/25/2007,"1,755 ","1,779 ","1,705 ",155.0 
1/7/2008,"1,753 ","1,778 ","1,701 ",154.3 
1/15/2008,"1,751 ","1,778 ","1,695 ",153.7 
1/21/2008,"1,748 ","1,776 ","1,693 ",153.3 
1/28/2008,"1,746 ","1,775 ","1,689 ",152.9 
2/4/2008,"1,742 ","1,775 ","1,684 ",152.6 
2/12/2008,"1,739 ","1,773 ","1,679 ",152.3 
2/18/2008,"1,737 ","1,764 ","1,677 ",152.1 
2/25/2008,"1,736 ","1,762 ","1,673 ",151.8 
3/3/2008,"1,737 ","1,760 ","1,675 ",151.9 
3/10/2008,"1,740 ","1,758 ","1,685 ",152.6 
3/17/2008,"1,742 ","1,755 ","1,686 ",152.9 
3/24/2008,"1,742 ","1,757 ","1,686 ",152.9 
3/31/2008,"1,742 ","1,757 ","1,686 ",152.9 
4/7/2008,"1,748 ","1,763 ","1,687 ",131.2 
4/14/2008,"1,749 ","1,764 ","1,686 ",130.6 
4/21/2008,"1,751 ","1,768 ","1,687 ",130.6 
4/28/2008,"1,751 ","1,769 ","1,687 ",130.6 
5/7/2008,"1,806 ","1,810 ","1,758 ",159.6 
5/12/2008,"1,813 ","1,814 ","1,762 ",160.1 
5/19/2008,"1,822 ","1,821 ","1,769 ",160.1 
5/26/2008,"1,833 ","1,838 ","1,783 ",160.3 
6/2/2008,"2,060 ","2,034 ","2,030 ",171.9 
6/9/2008,"2,088 ","2,061 ","2,047 ",172.4 
6/16/2008,"2,095 ","2,063 ","2,050 ",172.3 
6/23/2008,"2,100 ","2,073 ","2,057 ",172.0 
6/30/2008,"2,104 ","2,076 ","2,061 ",172.0 
7/7/2008,"2,294 ","2,349 ","2,244 ",181.5 
7/14/2008,"2,299 ","2,356 ","2,249 ",181.3 
7/22/2008,"2,302 ","2,357 ","2,251 ",180.9 
7/28/2008,"2,303 ","2,359 ","2,252 ",180.7 
8/4/2008,"2,375 ","2,431 ","2,323 ",185.1 
8/11/2008,"2,378 ","2,430 ","2,325 ",184.4 
8/18/2008,"2,374 ","2,427 ","2,325 ",183.2 
8/25/2008,"2,366 ","2,412 ","2,320 ",181.7 
9/1/2008,"2,293 ","2,310 ","2,258 ",176.2 
9/8/2008,"2,276 ","2,290 ","2,233 ",174.5 
9/16/2008,"2,264 ","2,282 ","2,217 ",173.0 
9/22/2008,"2,248 ","2,264 ","2,190 ",171.5 
9/29/2008,"2,235 ","2,248 ","2,167 ",170.2 
10/6/2008,"2,117 ","2,106 ","2,041 ",164.7 
10/14/2008,"2,075 ","2,083 ","2,002 ",161.6 
10/20/2008,"2,018 ","1,999 ","1,943 ",157.4 
10/27/2008,"1,943 ","1,947 ","1,853 ",151.3 
11/4/2008,"1,737 ","1,704 ","1,638 ",141.0 
11/10/2008,"1,651 ","1,680 ","1,555 ",136.6 
11/17/2008,"1,566 ","1,532 ","1,482 ",132.0 
11/25/2008,"1,498 ","1,456 ","1,421 ",127.9 
12/1/2008,"1,431 ","1,401 ","1,352 ",123.3 
12/8/2008,"1,377 ","1,363 ","1,299 ",119.1 
12/15/2008,"1,332 ","1,331 ","1,257 ",114.7 
12/22/2008,"1,292 ","1,265 ","1,212 ",110.6 
1/5/2009,"1,247 ","1,217 ","1,167 ",106.8 
1/13/2009,"1,228 ","1,184 ","1,146 ",106.0 
1/19/2009,"1,223 ","1,181 ","1,142 ",106.6 
1/26/2009,"1,223 ","1,183 ","1,141 ",107.4 
2/2/2009,"1,225 ","1,190 ","1,146 ",108.3 
2/9/2009,"1,227 ","1,191 ","1,146 ",108.9 
2/16/2009,"1,221 ","1,191 ","1,136 ",109.4 
2/23/2009,"1,206 ","1,156 ","1,121 ",109.6 
3/2/2009,"1,184 ","1,126 ","1,088 ",110.3 
3/9/2009,"1,166 ","1,107 ","1,058 ",111.1 
3/16/2009,"1,155 ","1,086 ","1,047 ",111.4 
3/23/2009,"1,146 ","1,056 ","1,033 ",111.5 
3/30/2009,"1,141 ","1,052 ","1,026 ",111.5 
4/6/2009,"1,137 ","1,052 ","1,017 ",113.2 
4/13/2009,"1,136 ","1,047 ","1,020 ",114.1 
4/20/2009,"1,138 ","1,054 ","1,026 ",115.1 
4/27/2009,"1,142 ","1,063 ","1,029 ",115.9 
5/7/2009,"1,144 ","1,068 ","1,037 ",116.7 
5/11/2009,"1,144 ","1,070 ","1,038 ",117.1 
5/18/2009,"1,145 ","1,072 ","1,044 ",118.0 
5/25/2009,"1,148 ","1,084 ","1,048 ",119.0 
6/1/2009,"1,150 ","1,093 ","1,053 ",120.0 
6/8/2009,"1,152 ","1,098 ","1,058 ",120.8 
6/15/2009,"1,156 ","1,098 ","1,063 ",121.2 
6/22/2009,"1,160 ","1,100 ","1,073 ",121.9 
6/29/2009,"1,165 ","1,112 ","1,078 ",122.6 
7/6/2009,"1,185 ","1,170 ","1,104 ",124.1 
7/13/2009,"1,195 ","1,182 ","1,113 ",125.1 
7/21/2009,"1,198 ","1,186 ","1,116 ",125.3 
7/27/2009,"1,199 ","1,190 ","1,117 ",125.3 
8/3/2009,"1,201 ","1,193 ","1,120 ",125.3 
8/10/2009,"1,202 ","1,195 ","1,120 ",125.3 
8/17/2009,"1,203 ","1,194 ","1,121 ",125.4 
8/24/2009,"1,208 ","1,204 ","1,124 ",125.9 
8/31/2009,"1,214 ","1,210 ","1,130 ",126.5 
9/7/2009,"1,237 ","1,238 ","1,149 ",128.8 
9/14/2009,"1,241 ","1,246 ","1,163 ",129.1 
9/24/2009,"1,244 ","1,246 ","1,165 ",129.1 
9/28/2009,"1,245 ","1,244 ","1,167 ",129.1 
10/5/2009,"1,244 ","1,247 ","1,168 ",128.9 
10/13/2009,"1,242 ","1,246 ","1,167 ",128.5 
10/19/2009,"1,238 ","1,234 ","1,163 ",127.9 
10/26/2009,"1,235 ","1,214 ","1,161 ",127.4 
11/2/2009,"1,235 ","1,212 ","1,161 ",127.0 
11/9/2009,"1,238 ","1,211 ","1,164 ",127.0 
11/16/2009,"1,242 ","1,229 ","1,169 ",126.8 
11/24/2009,"1,246 ","1,237 ","1,174 ",126.6 
11/30/2009,"1,248 ","1,242 ","1,179 ",126.5 
12/7/2009,"1,252 ","1,250 ","1,183 ",126.4 
12/14/2009,"1,252 ","1,251 ","1,183 ",126.3 
12/21/2009,"1,252 ","1,251 ","1,184 ",126.1 
1/5/2010,"1,254 ","1,252 ","1,187 ",125.8 
1/12/2010,"1,260 ","1,255 ","1,199 ",125.9 
1/18/2010,"1,284 ","1,287 ","1,228 ",127.2 
1/25/2010,"1,308 ","1,308 ","1,253 ",128.5 
2/1/2010,"1,316 ","1,329 ","1,262 ",128.9 
2/8/2010,"1,317 ","1,332 ","1,265 ",128.9 
2/15/2010,"1,316 ","1,325 ","1,264 ",128.9 
2/22/2010,"1,315 ","1,317 ","1,264 ",128.8 
3/1/2010,"1,314 ","1,303 ","1,261 ",128.7 
3/8/2010,"1,316 ","1,297 ","1,263 ",129.1 
3/15/2010,"1,321 ","1,296 ","1,267 ",130.4 
3/23/2010,"1,324 ","1,296 ","1,270 ",131.0 
3/29/2010,"1,326 ","1,295 ","1,270 ",131.3 
4/5/2010,"1,330 ","1,297 ","1,274 ",131.9 
4/12/2010,"1,342 ","1,298 ","1,289 ",133.2 
4/19/2010,"1,370 ","1,341 ","1,327 ",135.2 
4/26/2010,"1,401 ","1,375 ","1,369 ",137.5 
5/6/2010,"1,424 ","1,407 ","1,390 ",138.7 
5/10/2010,"1,430 ","1,424 ","1,399 ",139.0 
5/17/2010,"1,436 ","1,436 ","1,407 ",139.5 
5/24/2010,"1,437 ","1,437 ","1,406 ",139.6 
5/31/2010,"1,437 ","1,441 ","1,402 ",139.3 
6/7/2010,"1,431 ","1,440 ","1,394 ",138.3 
6/14/2010,"1,426 ","1,436 ","1,387 ",137.5 
6/21/2010,"1,422 ","1,427 ","1,380 ",136.9 
6/28/2010,"1,421 ","1,425 ","1,377 ",136.5 
7/5/2010,"1,420 ","1,423 ","1,377 ",136.1 
7/12/2010,"1,418 ","1,420 ","1,374 ",135.6 
7/20/2010,"1,415 ","1,415 ","1,370 ",135.0 
7/26/2010,"1,413 ","1,414 ","1,368 ",134.5 
8/2/2010,"1,410 ","1,412 ","1,364 ",134.1 
8/9/2010,"1,409 ","1,413 ","1,362 ",133.9 
8/16/2010,"1,409 ","1,413 ","1,362 ",133.7 
8/23/2010,"1,408 ","1,411 ","1,361 ",133.6 
8/30/2010,"1,407 ","1,412 ","1,361 ",133.5 
9/6/2010,"1,401 ","1,385 ","1,356 ",133.2 
9/13/2010,"1,399 ","1,383 ","1,354 ",133.0 
9/21/2010,"1,396 ","1,377 ","1,349 ",132.6 
9/27/2010,"1,393 ","1,377 ","1,343 ",132.3 
10/4/2010,"1,391 ","1,375 ","1,334 ",132.1 
10/12/2010,"1,390 ","1,370 ","1,330 ",132.1 
10/18/2010,"1,390 ","1,369 ","1,330 ",132.2 
10/25/2010,"1,390 ","1,368 ","1,332 ",132.3 
11/1/2010,"1,388 ","1,367 ","1,329 ",132.3 
11/8/2010,"1,388 ","1,367 ","1,329 ",132.3 
11/15/2010,"1,387 ","1,367 ","1,328 ",132.3 
11/22/2010,"1,389 ","1,380 ","1,328 ",132.3 
11/29/2010,"1,391 ","1,386 ","1,330 ",132.5 
12/6/2010,"1,398 ","1,395 ","1,339 ",132.9 
12/13/2010,"1,406 ","1,401 ","1,350 ",133.2 
12/20/2010,"1,422 ","1,423 ","1,369 ",133.7 
1/5/2011,"1,457 ","1,449 ","1,411 ",134.9 
1/11/2011,"1,477 ","1,504 ","1,429 ",135.9 
1/17/2011,"1,506 ","1,530 ","1,460 ",137.1 
1/24/2011,"1,523 ","1,531 ","1,477 ",137.8 
1/31/2011,"1,529 ","1,551 ","1,482 ",137.9 
2/7/2011,"1,537 ","1,572 ","1,492 ",138.1 
2/14/2011,"1,543 ","1,581 ","1,495 ",138.0 
2/21/2011,"1,547 ","1,584 ","1,501 ",138.1 
2/28/2011,"1,557 ","1,586 ","1,514 ",139.0 
3/7/2011,"1,620 ","1,619 ","1,579 ",145.5 
3/14/2011,"1,649 ","1,656 ","1,608 ",148.5 
3/22/2011,"1,682 ","1,688 ","1,666 ",151.2 
3/28/2011,"1,688 ","1,688 ","1,692 ",151.7 
4/4/2011,"1,693 ","1,686 ","1,708 ",151.8 
4/11/2011,"1,694 ","1,686 ","1,701 ",151.8 
4/18/2011,"1,703 ","1,702 ","1,707 ",152.2 
4/25/2011,"1,713 ","1,720 ","1,706 ",152.7 
5/2/2011,"1,716 ","1,733 ","1,706 ",152.5 
5/9/2011,"1,716 ","1,737 ","1,704 ",152.2 
5/16/2011,"1,710 ","1,740 ","1,692 ",151.1 
5/23/2011,"1,699 ","1,728 ","1,674 ",149.5 
5/30/2011,"1,694 ","1,711 ","1,667 ",148.5 
6/6/2011,"1,688 ","1,701 ","1,659 ",147.6 
6/13/2011,"1,687 ","1,701 ","1,657 ",147.4 
6/20/2011,"1,686 ","1,699 ","1,654 ",147.8 
6/27/2011,"1,685 ","1,700 ","1,653 ",148.7 
7/4/2011,"1,680 ","1,687 ","1,649 ",148.7 
7/11/2011,"1,677 ","1,669 ","1,646 ",148.7 
7/19/2011,"1,676 ","1,666 ","1,643 ",149.2 
7/25/2011,"1,676 ","1,661 ","1,642 ",150.6 
8/1/2011,"1,676 ","1,660 ","1,641 ",150.8 
8/8/2011,"1,675 ","1,659 ","1,639 ",150.8 
8/15/2011,"1,670 ","1,655 ","1,632 ",150.2 
8/22/2011,"1,659 ","1,628 ","1,623 ",149.1 
8/29/2011,"1,651 ","1,607 ","1,610 ",148.3 
9/5/2011,"1,640 ","1,598 ","1,595 ",147.4 
9/12/2011,"1,634 ","1,594 ","1,589 ",146.6 
9/20/2011,"1,627 ","1,589 ","1,577 ",145.8 
9/26/2011,"1,621 ","1,586 ","1,566 ",145.2 
10/3/2011,"1,609 ","1,567 ","1,551 ",144.2 
10/11/2011,"1,596 ","1,556 ","1,533 ",143.1 
10/17/2011,"1,587 ","1,550 ","1,524 ",142.6 
10/24/2011,"1,584 ","1,549 ","1,520 ",142.5 
10/31/2011,"1,582 ","1,548 ","1,515 ",142.5 
11/7/2011,"1,583 ","1,544 ","1,516 ",142.5 
11/14/2011,"1,587 ","1,560 ","1,521 ",142.7 
11/21/2011,"1,600 ","1,610 ","1,536 ",143.6 
11/28/2011,"1,603 ","1,616 ","1,541 ",143.7 
12/5/2011,"1,605 ","1,616 ","1,539 ",143.6 
12/12/2011,"1,605 ","1,615 ","1,539 ",143.6 
12/19/2011,"1,605 ","1,615 ","1,538 ",143.6 
12/26/2011,"1,604 ","1,615 ","1,537 ",143.4 
1/5/2012,"1,604 ","1,616 ","1,537 ",143.2 
1/10/2012,"1,605 ","1,616 ","1,537 ",143.1 
1/16/2012,"1,608 ","1,615 ","1,540 ",143.1 
1/23/2012,"1,613 ","1,614 ","1,547 ",143.2 
1/30/2012,"1,615 ","1,613 ","1,555 ",143.1 
2/6/2012,"1,617 ","1,613 ","1,559 ",142.9 
2/13/2012,"1,618 ","1,612 ","1,561 ",142.9 
2/20/2012,"1,625 ","1,612 ","1,567 ",143.5 
2/27/2012,"1,654 ","1,617 ","1,607 ",145.5 
3/5/2012,"1,705 ","1,691 ","1,660 ",149.2 
3/12/2012,"1,730 ","1,717 ","1,687 ",152.6 
3/19/2012,"1,748 ","1,726 ","1,704 ",155.6 
3/26/2012,"1,762 ","1,766 ","1,714 ",157.6 
4/2/2012,"1,766 ","1,772 ","1,717 ",158.3 
4/9/2012,"1,767 ","1,779 ","1,717 ",158.1 
4/16/2012,"1,762 ","1,777 ","1,710 ",157.2 
4/23/2012,"1,749 ","1,738 ","1,691 ",155.5 
5/1/2012,"1,738 ","1,725 ","1,682 ",153.9 
5/7/2012,"1,734 ","1,711 ","1,676 ",153.3 
5/14/2012,"1,718 ","1,700 ","1,664 ",151.7 
5/21/2012,"1,696 ","1,657 ","1,638 ",149.4 
5/28/2012,"1,679 ","1,646 ","1,621 ",147.4 
6/4/2012,"1,666 ","1,636 ","1,609 ",145.8 
6/11/2012,"1,645 ","1,604 ","1,587 ",143.9 
6/18/2012,"1,629 ","1,584 ","1,573 ",142.4 
6/25/2012,"1,617 ","1,572 ","1,558 ",141.2 
7/2/2012,"1,598 ","1,544 ","1,537 ",139.8 
7/9/2012,"1,590 ","1,534 ","1,526 ",139.4 
7/17/2012,"1,588 ","1,525 ","1,521 ",139.7 
7/23/2012,"1,586 ","1,528 ","1,520 ",139.6 
7/30/2012,"1,587 ","1,527 ","1,519 ",139.6 
8/6/2012,"1,585 ","1,525 ","1,517 ",139.6 
8/13/2012,"1,592 ","1,525 ","1,528 ",141.0 
8/20/2012,"1,613 ","1,540 ","1,547 ",143.8 
8/27/2012,"1,633 ","1,562 ","1,568 ",146.5 
9/3/2012,"1,644 ","1,609 ","1,581 ",147.7 
9/10/2012,"1,651 ","1,614 ","1,585 ",148.2 
9/18/2012,"1,656 ","1,614 ","1,590 ",148.7 
9/24/2012,"1,660 ","1,613 ","1,596 ",149.2 
10/1/2012,"1,659 ","1,612 ","1,594 ",149.0 
10/9/2012,"1,656 ","1,615 ","1,593 ",148.4 
10/15/2012,"1,652 ","1,615 ","1,590 ",147.9 
10/22/2012,"1,649 ","1,613 ","1,583 ",147.6 
10/29/2012,"1,646 ","1,615 ","1,576 ",147.5 
11/5/2012,"1,637 ","1,614 ","1,573 ",146.7 
11/12/2012,"1,631 ","1,612 ","1,566 ",146.2 
11/19/2012,"1,628 ","1,610 ","1,564 ",145.7 
11/26/2012,"1,630 ","1,609 ","1,568 ",145.5 
12/3/2012,"1,647 ","1,617 ","1,590 ",146.8 
12/10/2012,"1,660 ","1,669 ","1,600 ",147.2 
12/17/2012,"1,671 ","1,688 ","1,610 ",147.4 
12/25/2012,"1,692 ","1,687 ","1,637 ",148.0 
1/7/2013,"1,720 ","1,703 ","1,669 ",148.8 
1/15/2013,"1,759 ","1,769 ","1,714 ",150.0 
1/21/2013,"1,784 ","1,785 ","1,740 ",151.1 
1/28/2013,"1,792 ","1,836 ","1,747 ",151.2 
2/4/2013,"1,803 ","1,846 ","1,762 ",151.7 
2/12/2013,"1,821 ","1,850 ","1,777 ",153.8 
2/18/2013,"1,826 ","1,852 ","1,779 ",155.2 
2/25/2013,"1,826 ","1,852 ","1,778 ",156.2 
3/4/2013,"1,823 ","1,849 ","1,774 ",156.2 
3/11/2013,"1,814 ","1,832 ","1,760 ",155.8 
3/18/2013,"1,806 ","1,811 ","1,747 ",155.6 
3/25/2013,"1,801 ","1,791 ","1,739 ",155.5 
4/1/2013,"1,793 ","1,766 ","1,722 ",155.2 
4/8/2013,"1,786 ","1,753 ","1,714 ",155.0 
4/15/2013,"1,783 ","1,750 ","1,708 ",154.8 
4/22/2013,"1,776 ","1,749 ","1,700 ",154.1 
4/30/2013,"1,767 ","1,745 ","1,689 ",153.2 
5/7/2013,"1,763 ","1,740 ","1,682 ",152.5 
5/13/2013,"1,759 ","1,739 ","1,678 ",152.1 
5/20/2013,"1,757 ","1,738 ","1,676 ",151.9 
5/27/2013,"1,756 ","1,739 ","1,676 ",151.7 
6/3/2013,"1,756 ","1,738 ","1,674 ",151.6 
6/10/2013,"1,755 ","1,738 ","1,675 ",151.6 
6/17/2013,"1,756 ","1,738 ","1,676 ",151.9 
6/24/2013,"1,756 ","1,737 ","1,675 ",152.0 
7/1/2013,"1,756 ","1,738 ","1,675 ",151.9 
7/8/2013,"1,760 ","1,738 ","1,682 ",152.7 
7/16/2013,"1,776 ","1,742 ","1,700 ",155.2 
7/22/2013,"1,788 ","1,744 ","1,714 ",157.0 
7/29/2013,"1,799 ","1,751 ","1,724 ",158.8 
8/5/2013,"1,807 ","1,758 ","1,732 ",160.1 
8/12/2013,"1,808 ","1,757 ","1,733 ",160.2 
8/19/2013,"1,808 ","1,758 ","1,735 ",160.2 
8/26/2013,"1,808 ","1,758 ","1,734 ",160.2 
9/2/2013,"1,813 ","1,761 ","1,742 ",160.7 
9/9/2013,"1,820 ","1,789 ","1,748 ",161.4 
9/17/2013,"1,821 ","1,794 ","1,748 ",161.2 
9/24/2013,"1,820 ","1,795 ","1,746 ",160.7 
9/30/2013,"1,818 ","1,799 ","1,744 ",160.0 
10/7/2013,"1,816 ","1,798 ","1,743 ",159.0 
10/15/2013,"1,825 ","1,796 ","1,757 ",159.6 
10/21/2013,"1,831 ","1,800 ","1,768 ",160.1 
10/28/2013,"1,832 ","1,804 ","1,769 ",159.8 
11/5/2013,"1,833 ","1,832 ","1,769 ",159.1 
11/11/2013,"1,833 ","1,835 ","1,768 ",158.6 
11/18/2013,"1,832 ","1,837 ","1,767 ",157.9 
11/25/2013,"1,829 ","1,833 ","1,765 ",156.9 
12/2/2013,"1,836 ","1,834 ","1,774 ",157.0 
12/9/2013,"1,850 ","1,835 ","1,786 ",157.5 
12/16/2013,"1,858 ","1,839 ","1,795 ",157.7 
12/24/2013,"1,869 ","1,874 ","1,805 ",158.1 
1/6/2014,"1,877 ","1,884 ","1,812 ",158.3 
1/14/2014,"1,881 ","1,885 ","1,817 ",158.5 
1/20/2014,"1,882 ","1,886 ","1,820 ",158.7 
1/27/2014,"1,882 ","1,887 ","1,821 ",158.7 
2/3/2014,"1,879 ","1,887 ","1,817 ",158.6 
2/10/2014,"1,874 ","1,852 ","1,811 ",158.4 
2/17/2014,"1,871 ","1,843 ","1,806 ",158.2 
2/24/2014,"1,868 ","1,842 ","1,801 ",158.0 
3/3/2014,"1,864 ","1,837 ","1,794 ",157.9 
3/10/2014,"1,863 ","1,820 ","1,793 ",158.2 
3/17/2014,"1,863 ","1,818 ","1,792 ",158.7 
3/24/2014,"1,865 ","1,818 ","1,794 ",159.0 
4/1/2014,"1,919 ","1,868 ","1,845 ",164.1 
4/7/2014,"1,919 ","1,862 ","1,847 ",164.2 
4/14/2014,"1,919 ","1,866 ","1,847 ",164.2 
4/21/2014,"1,919 ","1,898 ","1,846 ",164.2 
4/28/2014,"1,919 ","1,901 ","1,847 ",164.8 
5/7/2014,"1,919 ","1,902 ","1,844 ",165.1 
5/12/2014,"1,918 ","1,902 ","1,844 ",165.4 
5/19/2014,"1,918 ","1,903 ","1,843 ",165.6 
5/26/2014,"1,918 ","1,902 ","1,842 ",165.8 
6/2/2014,"1,918 ","1,902 ","1,842 ",166.0 
6/9/2014,"1,919 ","1,902 ","1,842 ",166.6 
6/16/2014,"1,920 ","1,903 ","1,845 ",167.0 
6/23/2014,"1,922 ","1,903 ","1,850 ",167.4 
6/30/2014,"1,929 ","1,907 ","1,858 ",168.4 
7/7/2014,"1,939 ","1,913 ","1,870 ",169.7 
7/14/2014,"1,941 ","1,915 ","1,871 ",169.9 
7/22/2014,"1,941 ","1,916 ","1,871 ",169.8 
7/28/2014,"1,941 ","1,914 ","1,870 ",169.6 
8/4/2014,"1,940 ","1,914 ","1,869 ",169.4 
8/11/2014,"1,940 ","1,913 ","1,869 ",169.2 
8/18/2014,"1,940 ","1,912 ","1,868 ",169.0 
8/25/2014,"1,938 ","1,912 ","1,867 ",168.4 
9/1/2014,"1,935 ","1,909 ","1,861 ",167.8 
9/8/2014,"1,933 ","1,909 ","1,860 ",167.4 
9/16/2014,"1,931 ","1,907 ","1,859 ",167.1 
9/22/2014,"1,929 ","1,906 ","1,857 ",166.7 
9/29/2014,"1,926 ","1,905 ","1,855 ",166.3 
10/6/2014,"1,923 ","1,895 ","1,851 ",166.0 
10/14/2014,"1,918 ","1,892 ","1,847 ",165.3 
10/20/2014,"1,907 ","1,887 ","1,836 ",163.9 
10/27/2014,"1,884 ","1,863 ","1,814 ",161.8 
11/4/2014,"1,862 ","1,830 ","1,795 ",160.1 
11/10/2014,"1,854 ","1,825 ","1,785 ",159.5 
11/17/2014,"1,848 ","1,822 ","1,782 ",159.1 
11/25/2014,"1,839 ","1,821 ","1,770 ",158.3 
12/1/2014,"1,828 ","1,798 ","1,757 ",157.4 
12/8/2014,"1,800 ","1,773 ","1,733 ",155.3 
12/15/2014,"1,760 ","1,731 ","1,693 ",152.4 
12/22/2014,"1,711 ","1,681 ","1,641 ",149.1 
1/5/2015,"1,650 ","1,612 ","1,567 ",145.2 
1/13/2015,"1,608 ","1,559 ","1,517 ",142.6 
1/19/2015,"1,561 ","1,500 ","1,462 ",139.6 
1/26/2015,"1,507 ","1,434 ","1,405 ",136.2 
2/2/2015,"1,475 ","1,398 ","1,363 ",134.3 
2/9/2015,"1,462 ","1,376 ","1,344 ",133.5 
2/16/2015,"1,477 ","1,376 ","1,369 ",135.4 
2/23/2015,"1,499 ","1,381 ","1,389 ",137.9 
3/2/2015,"1,513 ","1,421 ","1,404 ",139.3 
3/9/2015,"1,519 ","1,426 ","1,410 ",139.9 
3/16/2015,"1,523 ","1,426 ","1,411 ",140.3 
3/23/2015,"1,522 ","1,425 ","1,410 ",140.4 
3/30/2015,"1,519 ","1,424 ","1,406 ",139.9 
4/6/2015,"1,513 ","1,427 ","1,395 ",139.4 
4/13/2015,"1,510 ","1,426 ","1,391 ",139.0 
4/20/2015,"1,509 ","1,426 ","1,388 ",138.8 
4/27/2015,"1,515 ","1,426 ","1,398 ",139.9 
5/7/2015,"1,520 ","1,427 ","1,406 ",140.6 
5/11/2015,"1,521 ","1,427 ","1,407 ",141.0 
5/18/2015,"1,528 ","1,428 ","1,413 ",142.1 
5/25/2015,"1,532 ","1,430 ","1,418 ",142.7 
6/1/2015,"1,533 ","1,433 ","1,420 ",142.9 
6/8/2015,"1,536 ","1,433 ","1,423 ",143.4 
6/15/2015,"1,541 ","1,435 ","1,431 ",144.5 
6/22/2015,"1,544 ","1,451 ","1,433 ",144.9 
6/29/2015,"1,545 ","1,457 ","1,434 ",145.1 
7/6/2015,"1,545 ","1,459 ","1,433 ",145.2 
7/13/2015,"1,542 ","1,459 ","1,430 ",144.7 
7/21/2015,"1,536 ","1,459 ","1,425 ",143.5 
7/27/2015,"1,530 ","1,457 ","1,418 ",142.5 
8/3/2015,"1,520 ","1,439 ","1,403 ",141.3 
8/10/2015,"1,508 ","1,427 ","1,393 ",140.0 
8/17/2015,"1,496 ","1,420 ","1,380 ",138.2 
8/24/2015,"1,479 ","1,389 ","1,357 ",136.7 
8/31/2015,"1,468 ","1,382 ","1,341 ",135.7 
9/7/2015,"1,456 ","1,371 ","1,332 ",135.1 
9/14/2015,"1,451 ","1,370 ","1,323 ",135.4 
9/24/2015,"1,444 ","1,358 ","1,314 ",135.2 
9/28/2015,"1,441 ","1,353 ","1,310 ",134.9 
10/5/2015,"1,430 ","1,316 ","1,300 ",134.4 
10/13/2015,"1,417 ","1,305 ","1,286 ",133.8 
10/19/2015,"1,410 ","1,299 ","1,279 ",133.8 
10/26/2015,"1,403 ","1,298 ","1,269 ",133.7 
11/2/2015,"1,387 ","1,278 ","1,259 ",132.7 
11/9/2015,"1,374 ","1,272 ","1,246 ",132.2 
11/16/2015,"1,366 ","1,267 ","1,240 ",131.6 
11/24/2015,"1,355 ","1,264 ","1,231 ",130.3 
11/30/2015,"1,343 ","1,260 ","1,222 ",129.1 
12/7/2015,"1,330 ","1,257 ","1,212 ",127.8 
12/14/2015,"1,310 ","1,236 ","1,192 ",126.2 
12/21/2015,"1,271 ","1,199 ","1,146 ",123.5 
1/4/2016,"1,227 ","1,152 ","1,103 ",120.4 
1/12/2016,"1,197 ","1,133 ","1,070 ",118.9 
1/18/2016,"1,160 ","1,090 ","1,029 ",117.2 
1/25/2016,"1,131 ","1,068 ","1,008 ",115.2 
2/1/2016,"1,112 ","1,058 ",986 ,113.4 
2/8/2016,"1,109 ","1,064 ",987 ,113.2 
2/15/2016,"1,109 ","1,061 ",988 ,113.5 
2/22/2016,"1,106 ","1,056 ",988 ,113.0 
2/29/2016,"1,104 ","1,055 ",985 ,112.5 
3/7/2016,"1,099 ","1,056 ",981 ,112.0 
3/14/2016,"1,098 ","1,057 ",980 ,112.1 
3/22/2016,"1,098 ","1,057 ",978 ,112.9 
3/28/2016,"1,098 ","1,056 ",977 ,113.3 
4/4/2016,"1,106 ","1,056 ",981 ,114.6 
4/11/2016,"1,112 ","1,056 ",990 ,116.3 
4/18/2016,"1,115 ","1,057 ",992 ,116.6 
4/25/2016,"1,114 ","1,056 ",990 ,117.1 
5/2/2016,"1,117 ","1,055 ",993 ,117.8 
5/9/2016,"1,119 ","1,054 ",993 ,118.0 
5/16/2016,"1,121 ","1,055 ",993 ,118.8 
5/23/2016,"1,122 ","1,055 ",995 ,119.2 
5/30/2016,"1,125 ","1,053 ",998 ,119.9 
6/6/2016,"1,143 ","1,065 ","1,025 ",122.5 
6/13/2016,"1,152 ","1,080 ","1,029 ",123.6 
6/20/2016,"1,155 ","1,091 ","1,035 ",124.0 
6/27/2016,"1,156 ","1,112 ","1,033 ",124.0 
7/4/2016,"1,156 ","1,116 ","1,034 ",123.8 
7/11/2016,"1,156 ","1,115 ","1,035 ",123.5 
7/19/2016,"1,153 ","1,115 ","1,030 ",122.7 
7/25/2016,"1,151 ","1,116 ","1,029 ",122.2 
8/1/2016,"1,151 ","1,115 ","1,030 ",122.1 
8/8/2016,"1,150 ","1,116 ","1,026 ",122.0 
8/15/2016,"1,148 ","1,117 ","1,027 ",121.7 
8/22/2016,"1,150 ","1,117 ","1,027 ",121.7 
8/29/2016,"1,151 ","1,117 ","1,029 ",122.2 
9/5/2016,"1,150 ","1,117 ","1,029 ",122.9 
9/12/2016,"1,151 ","1,116 ","1,028 ",123.0 
9/20/2016,"1,150 ","1,116 ","1,026 ",122.9 
9/26/2016,"1,149 ","1,098 ","1,024 ",122.8 
10/3/2016,"1,146 ","1,093 ","1,020 ",122.7 
10/11/2016,"1,146 ","1,097 ","1,020 ",122.8 
10/17/2016,"1,163 ","1,099 ","1,033 ",124.6 
10/24/2016,"1,175 ","1,102 ","1,043 ",126.0 
10/31/2016,"1,178 ","1,106 ","1,053 ",126.3 
11/7/2016,"1,185 ","1,136 ","1,062 ",126.5 
11/14/2016,"1,186 ","1,138 ","1,068 ",126.3 
11/21/2016,"1,188 ","1,138 ","1,073 ",125.8 
11/28/2016,"1,198 ","1,140 ","1,094 ",125.6 
12/5/2016,"1,228 ","1,188 ","1,147 ",126.0 
12/12/2016,"1,290 ","1,250 ","1,233 ",127.7 
12/19/2016,"1,342 ","1,329 ","1,302 ",129.3 
12/26/2016,"1,371 ","1,354 ","1,322 ",130.3 
1/10/2017,"1,387 ","1,404 ","1,339 ",130.5 
1/16/2017,"1,399 ","1,420 ","1,348 ",130.9 
1/23/2017,"1,405 ","1,423 ","1,352 ",131.1 
1/30/2017,"1,405 ","1,424 ","1,352 ",131.0 
2/6/2017,"1,406 ","1,423 ","1,353 ",130.9 
2/13/2017,"1,406 ","1,423 ","1,350 ",130.8 
2/20/2017,"1,404 ","1,418 ","1,344 ",130.6 
2/27/2017,"1,404 ","1,415 ","1,341 ",130.8 

�i���l�j�@�P�D�����G�l���M�[���u�Ζ����i���i�����v�ɂ��쐬�B,,,,
�@�@�@�@�@�Q�D�X�����i�x�[�X�A�������i�i����ō��݁j�i�����F�~/18���b�g���A�K�\�����F�~/�P���b�g���j�B
